Date,TemperatureHighF,TemperatureAvgF,TemperatureLowF,DewpointHighF,DewpointAvgF,DewpointLowF,HumidityHigh,HumidityAvg,HumidityLow,PressureMaxIn,PressureMinIn,WindSpeedMaxMPH,WindSpeedAvgMPH,GustSpeedMaxMPH,PrecipitationSumIn
2013-1-1,50.7,40.5,33.6,38.0,34.8,30.1,99,82,56,30.28,30.20,9,2,9,0.00
2013-1-2,49.4,41.1,32.5,34.3,31.7,29.8,90,70,54,30.24,30.15,7,3,8,0.00
2013-1-3,50.2,40.1,34.3,37.5,33.6,30.6,90,78,54,30.27,30.17,5,2,8,0.00
2013-1-4,51.6,41.5,33.5,37.3,34.6,32.2,95,78,56,30.29,30.19,5,2,7,0.00
2013-1-5,45.0,41.0,35.5,41.9,38.8,33.9,100,92,82,30.26,30.08,5,1,10,0.27
2013-1-6,51.1,43.8,39.3,43.5,41.4,38.5,100,92,71,30.19,30.07,6,2,7,0.03
2013-1-7,58.1,45.2,37.9,48.7,42.0,36.9,98,89,71,30.25,30.16,7,2,8,0.00
2013-1-8,54.3,43.8,36.3,46.2,41.1,36.0,100,91,73,30.25,30.14,4,2,5,0.01
2013-1-9,50.5,43.3,38.5,47.6,39.7,32.9,99,88,70,30.16,30.00,13,6,15,0.01
2013-1-10,48.5,41.6,35.0,35.8,32.3,29.6,88,70,49,30.19,30.07,12,8,16,0.00
2013-1-11,47.4,41.9,37.7,39.0,33.6,28.7,91,73,62,30.25,30.13,11,7,15,0.00
2013-1-12,46.0,40.2,30.8,32.9,27.3,23.3,87,62,41,30.22,30.14,4,2,6,0.00
2013-1-13,39.5,30.5,25.1,29.3,24.5,13.9,94,81,38,30.27,30.19,5,3,7,0.00
2013-1-14,50.2,38.1,28.6,32.7,23.7,15.2,91,59,34,30.40,30.23,6,2,6,0.00
2013-1-15,47.1,36.5,30.0,32.5,30.0,27.7,96,79,50,30.49,30.39,6,3,6,0.00
2013-1-16,52.2,41.5,30.2,36.5,32.4,27.9,91,72,50,30.44,30.27,6,3,8,0.00
2013-1-17,54.5,45.9,39.0,36.6,34.1,30.5,79,64,48,30.27,30.16,6,2,9,0.00
2013-1-18,56.1,50.0,42.9,38.3,34.9,31.4,75,57,46,30.24,30.14,8,3,11,0.00
2013-1-19,57.2,46.7,37.2,37.9,33.4,30.1,77,61,45,30.26,30.17,7,3,10,0.00
2013-1-20,57.7,46.7,37.5,34.3,32.2,29.6,73,58,39,30.23,30.14,8,3,9,0.00
2013-1-21,56.6,46.6,38.3,40.0,34.8,28.7,81,64,46,30.19,30.10,6,2,7,0.00
2013-1-22,55.2,48.6,42.4,40.9,37.8,34.5,79,67,49,30.13,30.01,6,3,8,0.00
2013-1-23,49.3,46.7,45.0,45.3,42.5,39.4,99,86,71,30.10,29.97,5,1,5,0.28
2013-1-24,55.5,48.6,44.9,50.0,47.2,44.6,100,95,81,30.19,30.08,5,2,6,0.01
2013-1-25,61.4,52.4,46.4,53.6,49.3,46.1,100,90,74,30.19,30.04,8,2,8,0.00
2013-1-26,52.1,48.2,43.6,47.7,42.4,37.6,98,81,62,30.06,29.98,16,9,19,0.00
2013-1-27,51.9,44.2,39.4,39.1,35.8,32.6,84,73,55,30.18,30.06,10,7,14,0.00
2013-1-28,54.3,46.3,41.7,42.3,38.2,33.5,86,74,54,30.28,30.16,12,8,18,0.00
2013-1-29,55.9,47.0,40.2,44.9,40.0,36.6,91,77,56,30.36,30.26,11,7,13,0.00
2013-1-30,62.2,49.1,39.6,44.5,41.4,37.2,93,77,51,30.34,30.25,7,2,7,0.00
2013-1-31,60.2,46.9,37.3,45.5,41.2,36.5,98,82,57,30.30,30.19,6,3,8,0.00
2013-2-1,61.6,49.5,40.3,44.0,41.9,39.0,96,77,51,30.21,30.12,6,2,8,0.00
2013-2-2,59.7,46.9,40.2,49.4,42.9,39.4,99,87,63,30.30,30.21,9,4,9,0.00
2013-2-3,56.9,46.5,41.2,47.7,42.4,39.3,97,86,70,30.25,30.14,9,4,10,0.00
2013-2-4,56.0,43.7,36.9,49.2,42.0,36.7,100,94,78,30.18,30.06,8,3,9,0.01
2013-2-5,52.7,46.6,42.8,46.1,42.4,39.2,92,85,77,30.15,30.06,13,7,19,0.00
2013-2-6,53.8,44.6,36.1,42.1,39.6,34.8,95,84,62,30.20,30.13,12,5,13,0.00
2013-2-7,50.7,43.9,35.4,43.4,39.5,34.9,98,86,60,30.16,29.99,11,4,14,0.26
2013-2-8,51.6,42.8,35.0,40.6,36.6,33.4,98,80,59,30.02,29.94,12,4,12,0.00
2013-2-9,56.6,43.0,34.3,36.4,30.8,24.9,85,65,30,30.09,30.00,9,4,10,0.00
2013-2-10,58.3,43.9,31.2,43.3,31.8,25.6,86,64,44,30.12,30.02,9,3,10,0.00
2013-2-11,63.0,49.9,38.9,40.4,32.3,23.7,91,54,30,30.23,30.08,10,3,11,0.00
2013-2-12,57.9,44.6,35.4,45.4,38.6,34.3,99,82,43,30.37,30.23,8,3,9,0.00
2013-2-13,61.2,45.7,34.4,45.0,39.8,33.6,97,82,47,30.34,30.21,9,3,9,0.00
2013-2-14,66.0,49.6,37.1,46.0,41.5,36.6,98,77,41,30.25,30.16,6,3,8,0.00
2013-2-15,65.5,52.5,41.3,43.6,40.4,37.2,93,66,37,30.27,30.21,7,4,10,0.00
2013-2-16,66.1,51.6,40.6,45.1,41.3,38.6,93,71,39,30.24,30.04,8,4,12,0.00
2013-2-17,61.3,48.8,40.0,43.9,40.9,38.0,93,76,47,30.05,29.97,9,4,9,0.00
2013-2-18,48.6,44.1,39.8,40.8,39.1,36.5,97,83,69,30.02,29.94,14,7,18,0.00
2013-2-19,44.8,42.6,37.0,41.2,37.5,31.1,93,83,65,29.96,29.75,14,7,19,0.22
2013-2-20,54.1,43.8,34.0,40.5,34.8,30.2,88,72,49,30.06,29.85,11,8,15,0.00
2013-2-21,55.7,45.5,38.1,38.9,35.7,33.3,89,70,45,30.17,30.06,12,6,16,0.00
2013-2-22,58.3,45.8,35.8,43.1,38.7,34.2,94,78,49,30.25,30.17,15,6,18,0.00
2013-2-23,53.1,47.0,42.4,45.0,36.6,31.4,96,69,45,30.26,30.17,13,8,19,0.00
2013-2-24,61.5,48.0,40.1,37.9,31.4,23.8,91,56,27,30.26,30.16,10,4,12,0.00
2013-2-25,59.4,45.8,37.1,44.2,39.3,35.7,95,80,57,30.26,30.17,14,6,16,0.00
2013-2-26,65.7,48.9,35.8,37.3,33.3,26.5,90,60,24,30.22,30.13,10,5,12,0.00
2013-2-27,65.7,49.2,35.7,43.9,37.4,30.6,91,68,27,30.36,30.20,11,5,14,0.00
2013-2-28,61.3,52.5,44.9,51.4,47.2,43.3,96,83,67,30.44,30.36,12,6,18,0.00
2013-3-1,69.6,53.4,42.9,50.4,46.2,41.8,99,79,45,30.43,30.24,8,3,10,0.00
2013-3-2,64.7,54.1,45.4,51.0,46.9,43.8,95,78,58,30.24,30.06,9,3,9,0.00
2013-3-3,59.9,51.4,42.5,47.2,45.3,41.2,95,80,57,30.08,30.03,15,6,19,0.00
2013-3-4,55.8,45.1,39.2,45.3,41.2,36.8,96,87,63,30.15,30.06,12,4,14,0.00
2013-3-5,52.4,44.2,34.9,44.7,40.0,34.1,98,86,69,30.07,29.81,13,4,19,0.29
2013-3-6,52.3,46.8,37.2,45.8,40.0,36.2,96,78,56,30.06,29.81,21,8,21,0.21
2013-3-7,50.9,43.2,35.3,42.8,39.1,34.8,98,87,61,30.00,29.87,7,3,10,0.01
2013-3-8,52.6,46.0,41.1,43.1,39.7,35.4,90,79,67,30.03,29.85,16,8,22,0.00
2013-3-9,62.7,50.5,38.5,43.4,39.2,36.1,91,68,41,30.30,30.05,11,6,12,0.00
2013-3-10,66.2,50.4,38.2,46.1,39.5,35.8,93,69,36,30.34,30.24,10,4,13,0.00
2013-3-11,68.2,50.1,36.6,49.0,41.3,35.0,94,75,40,30.26,30.10,10,4,14,0.00
2013-3-12,71.2,51.0,39.2,55.0,45.2,38.9,100,83,45,30.16,30.07,12,4,12,0.01
2013-3-13,74.0,54.8,39.5,53.0,46.6,38.5,98,77,44,30.16,30.06,10,3,12,0.00
2013-3-14,65.6,53.5,43.6,51.6,44.8,40.5,96,74,43,30.16,30.08,14,5,16,0.00
2013-3-15,68.0,52.2,42.8,50.7,44.8,40.6,92,78,46,30.13,30.03,12,6,19,0.00
2013-3-16,63.6,52.1,41.3,48.6,43.7,40.2,96,75,51,30.11,30.03,14,8,18,0.00
2013-3-17,62.8,51.2,43.4,46.3,40.5,38.1,89,68,40,30.15,30.05,15,6,21,0.00
2013-3-18,61.0,46.8,38.4,44.9,40.2,36.8,94,79,49,30.11,30.03,10,4,15,0.00
2013-3-19,60.8,51.1,42.8,44.5,40.4,36.6,91,68,50,30.13,30.06,9,3,11,0.02
2013-3-20,54.3,51.4,46.9,52.3,49.5,44.4,96,93,88,30.14,30.07,8,4,11,0.13
2013-3-21,57.8,46.0,38.4,45.5,40.2,36.6,95,81,57,30.13,30.01,14,7,19,0.00
2013-3-22,60.9,49.0,41.0,39.9,36.5,31.2,90,64,34,30.12,30.03,12,6,13,0.00
2013-3-23,64.7,48.8,38.0,44.2,37.9,34.8,90,69,35,30.14,30.05,11,5,12,0.00
2013-3-24,67.1,50.5,38.6,47.9,41.6,36.8,94,74,48,30.08,29.97,12,4,13,0.00
2013-3-25,51.6,45.5,39.2,42.8,41.0,37.7,96,84,71,30.03,29.95,14,6,18,0.00
2013-3-26,60.3,49.2,42.5,46.1,42.3,40.1,92,78,55,30.00,29.94,12,5,12,0.00
2013-3-27,56.8,49.9,44.3,50.2,46.0,42.2,95,87,73,30.01,29.95,6,2,10,0.00
2013-3-28,62.1,52.4,46.2,53.3,48.7,45.1,97,88,70,30.08,30.00,6,2,7,0.00
2013-3-29,71.0,55.6,41.3,54.0,48.3,40.8,100,79,50,30.09,30.00,8,3,10,0.00
2013-3-30,67.0,54.8,48.9,53.8,49.3,45.1,95,83,52,30.07,29.99,8,3,8,0.07
2013-3-31,59.3,53.6,50.1,55.7,50.6,48.7,98,90,74,30.06,30.00,11,2,11,0.23
2013-4-1,59.2,52.0,46.8,53.5,49.6,45.2,100,92,73,30.15,30.04,10,2,11,0.14
2013-4-2,62.5,51.6,45.7,54.9,48.1,44.2,99,88,72,30.18,30.09,12,5,14,0.00
2013-4-3,69.7,51.8,41.1,54.8,46.8,40.8,100,85,50,30.14,29.98,10,3,11,0.00
2013-4-4,57.1,52.0,46.7,53.3,50.2,44.8,100,94,84,30.12,29.99,9,3,10,0.57
2013-4-5,56.8,52.9,49.8,51.8,50.0,48.1,98,90,78,30.19,30.11,12,5,15,0.01
2013-4-6,60.8,53.1,49.4,53.5,50.1,47.1,97,90,75,30.18,30.14,12,6,18,0.05
2013-4-7,57.3,52.0,46.4,51.6,48.0,42.1,97,86,73,30.16,29.82,17,7,23,0.09
2013-4-8,61.9,50.9,43.2,43.8,39.0,34.2,86,65,44,30.05,29.82,22,10,27,0.00
2013-4-9,71.2,57.8,46.3,46.1,40.7,37.1,73,55,30,30.11,30.04,10,5,13,0.00
2013-4-10,76.7,62.8,53.4,53.7,47.3,41.2,79,58,38,30.17,30.03,15,8,19,0.00
2013-4-11,67.3,53.5,45.2,48.5,44.9,42.2,89,74,50,30.05,29.83,16,10,21,0.00
2013-4-12,71.0,51.8,41.0,53.0,44.2,39.7,95,77,50,29.91,29.83,15,7,19,0.00
2013-4-13,59.6,51.7,44.3,47.3,42.0,37.5,88,70,57,29.89,29.81,18,10,21,0.00
2013-4-14,59.8,50.0,43.0,42.9,37.8,33.2,93,64,43,29.92,29.86,17,9,24,0.00
2013-4-15,53.1,45.8,40.6,42.7,37.4,34.4,93,74,55,29.97,29.86,18,11,33,0.00
2013-4-16,60.8,49.9,38.6,40.4,34.9,30.4,77,58,36,30.18,29.97,12,7,13,0.00
2013-4-17,64.2,54.9,44.0,39.9,33.7,26.2,66,46,24,30.27,30.18,12,5,15,0.00
2013-4-18,71.9,57.6,44.0,43.7,38.9,35.2,82,53,27,30.26,30.18,12,5,14,0.00
2013-4-19,74.5,58.1,43.7,55.8,46.2,40.8,91,67,42,30.23,30.06,12,5,14,0.00
2013-4-20,73.4,57.6,45.9,50.4,43.4,41.0,84,62,33,30.11,29.98,14,7,19,0.00
2013-4-21,80.1,62.9,45.6,51.5,44.5,39.1,92,57,25,30.03,29.92,9,3,12,0.00
2013-4-22,85.0,65.1,49.8,51.2,45.8,37.9,87,54,19,29.96,29.85,12,3,15,0.00
2013-4-23,76.6,62.7,46.9,48.4,35.4,23.3,82,40,14,29.93,29.86,14,5,20,0.00
2013-4-24,59.4,49.3,40.3,48.9,44.3,39.7,98,84,67,29.95,29.84,12,5,18,0.00
2013-4-25,56.0,50.8,47.9,48.6,46.6,44.2,91,86,76,30.13,29.95,13,7,20,0.00
2013-4-26,62.2,50.4,45.3,51.4,45.9,43.7,94,85,66,30.23,30.13,12,6,13,0.00
2013-4-27,73.3,52.8,44.0,57.1,46.6,42.9,97,82,55,30.23,30.07,13,5,16,0.00
2013-4-28,83.1,60.5,41.2,57.0,47.9,40.9,99,68,39,30.07,29.87,11,3,13,0.00
2013-4-29,80.8,65.2,54.0,51.8,48.6,43.2,78,57,32,29.89,29.76,14,7,21,0.00
2013-4-30,71.8,61.0,47.6,47.0,42.6,15.7,86,55,13,29.86,29.78,13,8,20,0.00
2013-5-1,82.1,67.4,51.5,40.6,24.6,16.6,40,22,10,30.07,29.86,10,4,12,0.00
2013-5-2,87.3,68.1,49.6,42.3,28.6,19.9,48,26,12,30.15,30.06,11,5,14,0.00
2013-5-3,85.7,67.3,50.2,47.5,34.7,24.8,49,31,17,30.06,29.78,12,4,19,0.00
2013-5-4,82.7,62.9,49.1,48.3,42.6,36.1,82,52,23,29.78,29.55,11,4,16,0.00
2013-5-5,59.2,53.8,50.9,48.6,47.0,45.8,84,78,68,29.82,29.61,10,4,10,0.00
2013-5-6,67.0,58.3,49.3,50.6,48.4,45.8,92,71,51,29.97,29.82,8,3,10,0.00
2013-5-7,67.4,57.2,49.7,52.7,49.7,47.0,93,77,48,30.04,29.96,11,4,12,0.00
2013-5-8,56.1,50.7,48.5,49.5,47.6,46.1,96,89,78,30.13,30.04,13,7,14,0.00
2013-5-9,55.5,50.5,47.6,48.8,46.9,45.4,95,88,78,30.17,30.09,16,10,20,0.00
2013-5-10,65.6,52.7,47.1,54.6,48.7,46.3,97,87,66,30.18,30.10,16,7,18,0.00
2013-5-11,82.0,59.1,45.0,61.1,50.2,44.5,99,76,46,30.14,30.04,13,4,16,0.00
2013-5-12,71.8,57.7,44.9,58.7,49.4,43.8,97,76,51,30.13,30.02,15,6,24,0.00
2013-5-13,70.1,58.0,44.6,56.5,49.4,42.7,94,74,62,30.08,29.94,14,7,18,0.00
2013-5-14,67.7,56.8,48.6,49.6,46.5,43.1,89,70,49,29.98,29.90,14,8,18,0.00
2013-5-15,60.8,53.2,46.5,48.1,45.1,41.6,88,75,55,30.03,29.97,18,10,22,0.00
2013-5-16,62.3,55.0,49.8,52.8,49.0,45.5,88,81,65,30.02,29.96,16,10,20,0.00
2013-5-17,60.7,52.6,46.6,47.9,44.8,42.5,89,76,57,30.07,29.97,20,9,23,0.00
2013-5-18,66.0,55.9,44.8,49.9,46.4,42.2,93,72,51,30.12,30.06,14,8,16,0.00
2013-5-19,76.1,61.7,47.6,47.5,44.4,40.6,84,56,28,30.12,29.98,14,6,16,0.00
2013-5-20,82.1,65.2,51.2,51.3,43.8,37.9,77,51,21,30.00,29.91,14,6,15,0.00
2013-5-21,62.3,54.6,47.5,47.7,42.6,36.5,83,64,51,29.99,29.90,17,10,23,0.00
2013-5-22,58.1,50.9,44.6,40.5,34.4,28.0,76,54,35,30.03,29.91,17,9,26,0.00
2013-5-23,60.8,51.7,43.2,43.2,40.5,37.8,83,67,48,30.00,29.91,14,8,20,0.00
2013-5-24,62.9,51.8,42.2,44.6,41.2,38.6,87,68,45,30.00,29.93,21,8,22,0.00
2013-5-25,61.0,51.4,43.4,46.5,43.8,40.3,90,76,55,30.04,29.95,18,8,24,0.00
2013-5-26,61.5,55.0,50.0,50.8,48.8,46.3,93,80,67,30.11,30.03,16,10,24,0.00
2013-5-27,58.2,54.0,49.0,53.1,50.4,45.5,95,88,76,30.11,29.99,13,7,18,0.02
2013-5-28,63.0,56.8,52.7,54.7,51.6,47.2,97,83,67,30.00,29.91,16,8,22,0.02
2013-5-29,53.0,51.7,51.2,46.0,45.5,45.2,81,79,77,29.94,29.91,14,11,23,0.00
2013-5-30,66.4,56.3,47.1,47.9,44.7,42.7,85,66,50,29.99,29.92,17,8,23,0.00
2013-5-31,80.0,62.5,46.1,50.6,45.4,42.6,88,57,30,30.01,29.90,13,8,20,0.00
2013-6-1,84.7,66.1,49.1,52.4,46.6,43.8,82,53,27,29.92,29.76,15,9,21,0.00
2013-6-2,73.8,60.5,48.8,52.6,48.6,45.1,88,67,43,29.77,29.65,14,9,15,0.00
2013-6-3,66.9,56.2,46.7,51.4,48.7,45.3,95,78,57,29.86,29.70,10,5,14,0.00
2013-6-4,61.4,54.4,50.1,51.5,49.1,47.4,92,83,69,29.97,29.86,11,6,16,0.00
2013-6-5,63.6,53.6,48.8,53.2,48.9,46.8,94,85,67,30.00,29.92,13,7,14,0.00
2013-6-6,74.2,56.2,47.8,57.2,50.1,46.7,97,82,54,29.96,29.85,11,5,18,0.00
2013-6-7,88.9,70.0,48.5,62.0,53.1,45.6,97,61,27,29.88,29.69,10,3,13,0.00
2013-6-8,89.9,67.2,55.1,63.0,54.8,50.5,89,67,41,29.80,29.68,13,4,18,0.00
2013-6-9,62.6,57.4,52.9,53.2,51.8,50.7,94,82,71,29.89,29.80,10,6,19,0.00
2013-6-10,59.5,55.5,52.7,52.7,50.9,49.1,96,85,73,29.95,29.80,10,4,18,0.00
2013-6-11,71.5,59.0,52.0,55.4,50.3,44.2,93,74,56,29.99,29.88,12,5,18,0.00
2013-6-12,60.4,50.6,46.6,46.5,44.9,42.9,90,81,60,29.98,29.90,19,9,25,0.00
2013-6-13,70.0,58.6,47.5,48.6,44.7,41.1,81,61,44,30.08,29.98,16,9,16,0.00
2013-6-14,82.3,62.0,48.3,47.4,44.3,35.3,88,58,19,29.99,29.82,12,6,12,0.00
2013-6-15,71.3,55.1,43.9,54.1,47.5,43.1,98,77,53,29.98,29.82,16,6,20,0.00
2013-6-16,71.6,59.3,46.8,51.4,47.2,43.8,90,66,49,30.07,29.97,19,9,24,0.00
2013-6-17,62.8,53.8,51.0,51.3,47.5,46.0,85,79,65,30.07,30.05,11,7,18,0.00
2013-6-20,54.8,54.0,53.4,45.5,45.2,44.8,74,72,70,29.96,29.96,9,7,9,0.00
2013-6-21,72.8,59.8,47.3,49.2,46.8,44.2,90,65,40,29.97,29.90,13,7,15,0.00
2013-6-22,80.2,62.0,49.3,51.7,47.7,44.3,86,63,31,29.92,29.83,15,8,18,1.67
2013-6-23,61.3,57.5,53.4,57.8,54.8,50.7,94,91,86,29.86,29.81,13,7,15,0.00
2013-6-24,60.1,56.1,52.9,57.7,53.9,51.3,97,92,85,29.89,29.79,5,2,5,0.12
2013-6-25,67.8,60.5,55.7,61.8,58.3,54.9,98,93,81,29.97,29.87,7,2,10,0.16
2013-6-26,76.1,66.0,59.1,62.8,59.7,56.5,97,81,61,30.05,29.96,9,4,14,0.00
2013-6-27,79.2,67.5,54.9,61.6,57.0,53.8,97,72,46,30.07,30.00,12,6,14,0.00
2013-6-28,90.8,74.6,56.7,64.0,56.9,51.9,92,58,35,30.02,29.87,12,5,13,0.00
2013-6-29,95.4,76.6,60.1,59.4,54.1,50.5,74,48,28,29.90,29.77,13,5,16,0.00
2013-6-30,82.1,70.1,56.5,57.9,54.0,51.1,85,58,41,29.83,29.73,13,6,19,0.00
2013-7-1,93.5,70.8,54.2,61.6,55.3,51.3,91,63,32,29.83,29.78,11,5,15,0.00
2013-7-2,90.1,70.6,56.8,63.3,56.8,53.3,88,65,33,29.91,29.80,12,4,15,0.00
2013-7-3,91.9,70.3,55.2,63.4,57.1,53.0,93,67,39,29.90,29.75,10,4,11,0.00
2013-7-4,90.8,74.1,60.4,64.3,55.1,44.2,84,55,34,29.77,29.65,14,6,17,0.00
2013-7-5,72.8,59.1,51.1,55.7,49.9,43.9,89,73,48,29.76,29.68,14,7,16,0.00
2013-7-6,76.1,58.5,48.3,56.4,50.7,46.7,95,78,50,29.78,29.71,10,4,14,0.00
2013-7-7,78.4,59.0,48.4,57.1,51.0,46.9,95,78,48,29.86,29.77,11,4,14,0.00
2013-7-8,81.9,60.9,50.1,58.2,52.3,48.2,95,76,43,29.97,29.86,7,3,9,0.00
2013-7-9,87.1,64.5,49.3,58.8,52.0,47.9,96,69,33,30.03,29.92,12,4,13,0.00
2013-7-10,78.3,58.8,48.7,55.6,50.5,47.1,96,77,44,29.98,29.89,13,6,16,0.00
2013-7-11,68.6,55.7,48.0,54.2,49.8,46.6,96,82,58,29.94,29.86,11,5,12,0.00
2013-7-12,73.8,58.2,49.0,56.1,50.1,46.9,94,77,52,29.94,29.86,12,4,15,0.00
2013-7-13,81.1,60.2,45.8,57.7,49.9,43.7,98,72,45,29.94,29.89,11,4,13,0.00
2013-7-14,73.5,58.0,48.2,55.2,50.0,46.6,96,77,51,29.99,29.88,11,4,15,0.00
2013-7-15,63.2,53.4,47.3,52.1,49.2,45.9,96,86,67,29.92,29.84,12,5,12,0.00
2013-7-16,61.6,55.3,51.2,53.9,51.1,48.6,93,86,75,30.02,29.86,9,4,13,0.00
2013-7-17,73.3,59.3,50.4,57.1,52.4,48.9,95,80,56,30.09,30.02,11,5,15,0.00
2013-7-18,80.4,59.1,48.2,58.3,51.4,47.7,99,79,47,30.06,29.93,13,4,18,0.00
2013-7-19,81.9,59.7,47.4,59.9,51.7,46.4,98,78,46,29.94,29.81,13,4,16,0.00
2013-7-20,81.3,60.4,47.6,59.1,52.1,46.7,97,77,47,29.84,29.72,12,4,15,0.00
2013-7-21,81.1,61.6,49.0,57.5,51.3,47.3,96,72,40,29.88,29.75,10,3,14,0.00
2013-7-22,80.9,63.0,50.9,60.3,53.1,48.5,95,73,36,29.96,29.88,10,3,11,0.00
2013-7-23,74.6,65.0,56.5,57.1,54.1,52.1,87,69,50,29.99,29.92,7,4,11,0.00
2013-7-24,80.0,65.2,52.7,55.6,51.5,47.8,94,65,33,29.98,29.90,12,6,15,0.00
2013-7-25,75.2,61.3,51.1,54.6,51.2,48.6,92,72,46,30.01,29.91,11,5,15,0.00
2013-7-26,76.7,59.3,50.4,56.7,52.1,48.8,95,79,50,30.09,30.00,10,5,13,0.00
2013-7-27,74.1,58.4,50.8,56.9,52.2,49.7,97,82,52,30.03,29.85,11,4,13,0.00
2013-7-28,72.1,56.7,50.1,56.0,50.8,47.7,96,82,56,29.88,29.80,12,4,16,0.00
2013-7-29,56.2,51.6,48.4,50.8,48.9,46.8,95,91,82,30.02,29.84,8,2,9,0.00
2013-7-30,70.5,56.6,50.4,55.5,50.9,48.5,95,83,59,30.10,30.02,11,4,12,0.00
2013-7-31,68.2,57.5,50.0,54.0,50.6,48.3,94,79,55,30.08,29.98,16,6,24,0.00
2013-8-1,65.6,57.6,50.9,52.5,50.4,48.7,93,78,61,30.06,29.96,13,8,20,0.00
2013-8-2,71.6,59.4,50.7,53.6,49.9,48.5,92,73,53,29.91,29.88,14,8,24,0.00
2013-8-3,75.6,57.3,48.4,56.7,50.6,47.0,96,81,52,29.97,29.89,11,5,17,0.00
2013-8-4,71.9,55.6,49.3,56.1,50.4,47.7,95,84,57,30.00,29.94,13,5,21,0.00
2013-8-5,70.5,55.8,49.4,55.0,50.4,47.5,96,84,55,30.03,29.93,12,6,21,0.00
2013-8-6,64.3,55.5,49.7,54.3,51.1,48.3,96,86,69,30.04,29.98,12,6,21,0.00
2013-8-7,64.5,57.2,52.6,54.7,53.0,51.0,97,87,70,30.09,30.03,9,4,18,0.00
2013-8-8,67.5,56.9,50.3,55.6,52.2,48.9,96,85,65,30.03,29.94,14,5,22,0.00
2013-8-9,66.5,56.3,50.3,55.0,51.7,48.9,96,86,66,29.97,29.92,11,5,19,0.00
2013-8-10,67.7,59.4,54.1,55.2,54.0,52.2,94,83,63,30.01,29.99,13,8,22,0.00
2013-8-11,70.5,57.0,50.7,56.4,52.2,49.6,97,85,60,30.02,29.93,11,5,18,0.00
2013-8-12,79.5,60.0,50.4,58.7,51.9,48.4,97,77,44,29.99,29.93,11,3,18,0.00
2013-8-13,84.6,61.8,46.6,57.8,51.0,46.1,100,72,37,29.99,29.89,13,4,20,0.00
2013-8-14,77.6,63.3,50.9,58.5,52.9,48.2,91,71,41,29.96,29.88,14,6,25,0.00
2013-8-15,75.7,65.2,58.0,63.1,59.5,55.9,94,83,64,29.95,29.90,14,7,23,0.00
2013-8-16,79.7,64.2,54.4,62.0,56.5,52.6,98,78,48,29.97,29.92,13,4,22,0.00
2013-8-17,76.6,62.7,52.1,58.1,53.8,49.9,93,75,45,29.97,29.84,13,5,24,0.00
2013-8-18,90.8,69.5,51.0,62.8,55.8,49.9,97,67,38,29.88,29.76,10,3,17,0.00
2013-8-19,86.0,69.6,57.7,61.7,55.9,51.0,88,65,36,29.88,29.77,11,4,19,0.00
2013-8-20,79.6,63.0,55.3,58.3,55.0,52.4,94,77,44,29.89,29.79,12,4,18,0.00
2013-8-21,73.8,59.8,53.7,55.3,52.8,50.7,92,79,51,29.94,29.85,13,5,22,0.00
2013-8-22,66.2,57.3,52.4,53.7,51.6,50.1,93,82,64,29.98,29.89,13,6,24,0.00
2013-8-23,73.3,59.8,52.6,57.9,52.6,50.6,94,79,55,29.92,29.79,11,5,20,0.00
2013-8-24,72.2,61.2,52.7,58.1,53.9,50.1,92,78,57,29.88,29.82,16,7,24,0.00
2013-8-25,72.7,64.0,57.9,61.1,58.2,55.3,94,82,65,29.94,29.87,9,4,17,0.00
2013-8-26,70.9,60.8,55.5,58.1,54.0,51.3,96,80,53,30.01,29.89,15,6,22,0.00
2013-8-27,78.0,61.5,50.0,57.4,53.5,48.1,94,77,44,29.90,29.82,14,6,21,0.00
2013-8-28,74.8,62.7,55.6,61.9,58.0,54.2,96,86,63,29.94,29.84,13,6,22,0.00
2013-8-29,75.7,64.0,57.5,61.9,58.9,56.1,96,84,59,30.05,29.94,14,7,22,0.00
2013-8-30,84.0,68.5,57.4,61.9,57.7,54.1,94,71,46,30.02,29.91,14,5,22,0.00
2013-8-31,72.0,61.3,55.0,57.4,54.6,51.4,93,80,58,29.96,29.89,12,7,19,0.00
2013-9-1,74.9,62.6,54.3,58.7,54.8,51.1,91,77,48,29.93,29.87,16,7,25,0.00
2013-9-2,73.7,64.9,59.7,61.2,59.1,53.5,93,82,63,29.94,29.88,12,8,20,0.00
2013-9-3,71.2,63.1,56.9,57.2,53.8,48.3,88,73,45,29.98,29.92,13,8,24,0.00
2013-9-4,71.4,62.1,55.5,56.3,54.8,53.1,93,79,54,30.01,29.92,15,8,24,0.00
2013-9-5,71.6,62.8,55.0,55.2,53.3,51.4,93,72,52,29.99,29.93,14,7,23,0.00
2013-9-6,87.1,68.3,50.6,55.2,49.4,45.0,93,57,25,29.98,29.83,10,3,16,0.00
2013-9-7,92.1,71.4,55.6,51.8,48.4,45.4,71,48,21,29.87,29.79,9,3,18,0.00
2013-9-8,90.4,67.5,50.4,58.9,51.8,47.4,92,61,33,29.87,29.74,10,2,16,0.00
2013-9-9,91.6,66.4,48.3,58.2,51.6,46.4,93,64,26,29.80,29.68,11,3,19,0.00
2013-9-10,70.6,60.1,51.3,58.0,54.8,49.9,98,84,63,29.89,29.72,10,3,18,0.00
2013-9-11,67.6,61.7,59.4,57.5,56.3,55.2,91,83,70,29.99,29.89,9,4,17,0.00
2013-9-12,71.5,60.4,53.9,59.6,56.2,52.5,95,87,64,29.98,29.89,13,5,22,0.00
2013-9-13,72.0,58.4,52.1,58.1,53.2,51.0,96,84,56,29.90,29.74,12,6,25,0.00
2013-9-14,64.9,56.4,51.2,56.4,52.9,50.1,97,89,72,29.82,29.72,16,8,19,4.02
2013-9-15,71.7,58.2,52.7,57.1,53.0,50.6,95,84,57,29.84,29.76,12,6,14,0.00
2013-9-16,76.8,61.7,54.7,58.8,54.7,51.9,96,80,51,29.88,29.76,16,6,20,0.00
2013-9-17,68.3,60.6,53.9,53.8,51.6,48.4,92,73,59,29.87,29.79,15,10,20,0.00
2013-9-18,79.5,62.7,51.9,50.1,47.0,43.5,83,60,29,29.90,29.81,13,6,19,0.00
2013-9-19,84.4,62.0,47.8,51.5,46.9,43.1,87,63,28,29.85,29.74,15,4,19,0.00
2013-9-20,69.5,59.8,50.5,59.1,54.2,44.9,93,82,68,29.83,29.76,14,6,15,0.00
2013-9-21,63.0,58.3,54.3,58.3,54.8,50.8,98,89,67,29.89,29.79,12,4,13,0.50
2013-9-22,68.1,58.4,48.7,52.8,50.9,47.9,97,78,52,29.99,29.89,13,5,16,0.00
2013-9-23,77.2,62.7,52.2,59.2,54.0,49.0,91,74,52,30.01,29.93,12,5,12,0.00
2013-9-24,68.7,60.8,55.1,53.6,50.5,46.6,87,70,53,29.97,29.90,17,9,25,0.00
2013-9-25,63.7,56.6,50.7,47.0,45.3,41.8,84,67,50,29.92,29.82,15,9,15,0.00
2013-9-26,69.7,57.9,49.2,45.3,40.9,35.4,74,55,29,29.98,29.85,13,5,16,0.00
2013-9-27,73.8,60.1,49.4,42.0,38.9,34.8,67,48,25,30.08,29.98,12,4,14,0.00
2013-9-28,77.5,58.5,45.3,54.0,45.5,38.0,89,66,25,30.08,30.00,14,5,15,0.00
2013-9-29,67.4,60.4,53.2,59.0,56.2,51.8,95,87,73,30.09,30.04,8,4,10,0.00
2013-9-30,69.5,61.6,52.8,60.6,56.3,42.8,97,84,59,30.05,29.97,10,4,10,0.00
2013-10-1,68.9,58.4,50.6,49.0,47.0,43.9,83,67,47,30.00,29.91,9,5,14,0.00
2013-10-2,66.7,56.7,48.7,49.4,45.1,38.9,88,67,48,30.00,29.93,14,7,15,0.00
2013-10-3,71.8,60.9,46.7,39.6,33.4,25.2,72,40,18,30.08,29.95,8,4,11,0.00
2013-10-4,77.4,67.2,55.7,27.6,25.5,22.5,33,21,13,30.08,29.99,9,4,10,0.00
2013-10-5,78.5,65.3,53.9,33.0,28.9,25.4,38,27,15,30.18,30.08,5,3,9,0.00
2013-10-6,79.3,62.6,45.9,37.7,32.3,27.7,51,34,20,30.12,29.99,5,2,6,0.00
2013-10-7,79.3,61.8,47.8,44.2,36.4,25.5,74,42,14,29.99,29.86,11,4,12,0.00
2013-10-8,73.7,57.0,46.2,46.9,43.7,41.5,85,64,32,29.90,29.70,9,4,11,0.00
2013-10-9,65.0,56.3,46.0,43.1,41.3,39.0,86,59,40,29.75,29.62,10,5,14,0.00
2013-10-10,70.0,56.2,45.4,46.4,41.7,38.2,88,61,33,30.00,29.75,7,2,7,0.00
2013-10-11,65.0,49.6,40.3,48.4,43.8,39.7,98,82,53,30.09,29.98,10,3,12,0.00
2013-10-12,67.0,50.7,39.5,50.7,43.7,38.7,98,79,47,30.01,29.89,13,5,15,0.00
2013-10-13,70.6,56.2,43.4,49.4,42.2,35.9,96,64,28,30.06,29.91,11,4,11,0.01
2013-10-14,75.2,57.8,43.2,42.2,37.3,32.7,78,50,27,30.11,30.00,8,2,11,0.00
2013-10-15,77.5,59.9,45.7,39.7,33.7,30.4,63,40,18,30.04,29.95,8,2,8,0.00
2013-10-16,77.7,59.6,45.5,37.2,33.8,31.0,59,40,21,30.08,29.98,5,2,7,0.00
2013-10-17,78.9,60.5,45.2,42.3,33.4,28.0,71,39,18,30.08,29.95,8,3,9,0.00
2013-10-18,77.5,56.8,42.4,46.4,41.0,36.3,89,60,25,30.05,29.97,7,2,10,0.00
2013-10-19,79.8,57.8,42.5,45.7,40.3,36.7,81,57,24,30.07,29.98,7,2,7,0.00
2013-10-20,76.8,53.6,39.2,47.1,42.1,36.5,92,70,33,30.02,29.90,9,2,11,0.00
2013-10-21,71.2,52.6,42.2,52.8,45.6,40.9,98,80,51,30.00,29.90,6,2,9,0.00
2013-10-22,74.5,51.5,40.8,50.4,44.8,40.0,99,81,36,30.02,29.91,11,3,13,0.00
2013-10-23,72.1,49.5,40.2,51.7,44.5,39.4,99,85,48,29.98,29.88,11,3,16,0.00
2013-10-24,58.7,49.3,44.4,48.5,45.5,43.3,97,87,66,30.10,29.97,8,4,9,0.00
2013-10-25,69.6,52.5,42.4,50.7,46.0,41.5,97,80,50,30.17,30.08,8,2,10,0.00
2013-10-26,77.7,55.6,41.3,47.6,42.2,35.7,89,65,31,30.14,30.01,8,3,9,0.00
2013-10-27,55.0,48.9,42.8,48.6,45.2,40.9,96,87,75,30.02,29.65,17,8,22,0.00
2013-10-28,58.3,50.8,44.7,45.9,44.1,42.2,91,79,58,29.82,29.65,9,6,13,0.00
2013-10-29,58.9,49.6,42.5,46.9,44.6,40.9,97,84,63,30.05,29.83,6,1,7,0.00
2013-10-30,63.8,49.1,38.5,47.5,42.3,37.7,98,80,55,30.15,30.05,8,2,9,0.00
2013-10-31,69.4,52.8,40.3,48.0,41.7,37.6,91,68,43,30.17,30.06,7,2,7,0.00
2013-11-1,69.5,55.0,44.0,45.5,42.0,38.5,86,64,40,30.15,30.01,5,2,5,0.00
2013-11-2,66.4,53.5,44.4,52.0,44.1,39.2,83,71,48,30.01,29.89,14,6,14,0.00
2013-11-3,62.6,51.0,42.4,40.4,35.4,26.2,79,57,25,30.05,29.92,9,5,11,0.00
2013-11-4,69.2,54.2,39.4,36.2,32.4,23.2,85,48,18,30.09,29.92,7,4,13,0.00
2013-11-5,70.7,57.5,48.4,38.0,35.0,32.3,64,44,27,30.21,30.07,5,2,6,0.00
2013-11-6,66.6,56.2,44.4,39.3,37.3,34.5,68,50,34,30.26,30.15,5,2,7,0.00
2013-11-7,71.3,57.0,48.0,49.1,41.5,36.0,94,59,33,30.16,30.07,9,3,12,0.00
2013-11-8,70.8,53.3,40.5,50.7,45.5,39.4,97,78,42,30.08,29.95,11,4,16,0.00
2013-11-9,68.2,50.9,37.6,47.1,42.4,37.1,98,76,45,30.04,29.96,5,2,5,0.00
2013-11-10,64.3,49.9,42.2,50.1,44.7,40.3,97,84,57,30.11,30.02,6,2,6,0.00
2013-11-11,61.9,50.7,41.2,48.8,45.0,40.7,99,82,55,30.17,30.08,5,1,5,0.01
2013-11-12,69.2,58.3,51.1,50.5,47.9,44.4,82,69,47,30.27,30.15,7,2,7,0.00
2013-11-13,75.4,56.2,46.1,52.0,48.2,44.5,95,77,41,30.23,30.09,9,3,11,0.00
2013-11-14,60.2,50.4,43.4,51.9,45.0,39.0,100,83,63,30.10,29.87,12,4,12,0.00
2013-11-15,61.7,50.9,43.3,43.6,40.7,37.1,89,70,40,29.88,29.72,11,5,15,0.00
2013-11-16,60.9,49.8,41.3,48.2,43.1,37.1,94,79,50,29.92,29.76,12,4,14,0.00
2013-11-17,58.7,47.4,40.9,48.2,44.0,40.4,99,89,68,30.08,29.92,5,1,5,0.00
2013-11-18,54.6,46.4,37.7,46.0,42.5,37.0,98,87,71,30.15,30.08,7,2,8,0.00
2013-11-19,53.5,50.9,47.3,52.9,50.0,44.7,99,97,89,30.09,29.92,2,0,3,0.67
2013-11-20,56.1,52.1,47.5,53.8,51.2,46.1,99,97,90,29.92,29.84,9,2,11,0.29
2013-11-21,60.2,52.8,46.1,46.9,33.1,18.4,97,57,22,29.99,29.89,6,3,14,0.00
2013-11-22,69.4,60.6,49.2,18.6,11.6,6.8,25,15,9,30.02,29.90,11,4,18,0.00
2013-11-23,59.7,49.7,41.4,37.2,32.1,26.6,85,53,31,30.10,29.97,6,2,10,0.00
2013-11-24,58.0,45.6,36.0,41.2,38.4,34.7,96,78,48,30.25,30.10,4,2,6,0.00
2013-11-25,58.0,45.6,36.2,43.7,39.6,34.6,96,81,57,30.33,30.25,4,2,5,0.00
2013-11-26,58.0,47.6,38.6,41.2,39.4,37.3,95,75,49,30.28,30.05,5,2,6,0.00
2013-11-27,58.6,51.1,44.3,43.6,41.1,37.9,80,69,57,30.05,29.85,5,1,9,0.00
2013-11-28,67.9,52.3,44.0,44.6,40.2,37.7,83,66,37,30.06,29.87,6,2,7,0.00
2013-11-29,63.4,50.0,39.7,44.7,40.8,36.6,91,72,45,30.21,30.06,5,2,6,0.00
2013-11-30,63.9,49.9,41.4,45.7,42.0,39.1,92,76,48,30.27,30.18,5,2,6,0.00
2013-12-1,66.6,51.5,40.0,46.5,42.2,37.8,94,73,47,30.33,30.21,5,2,5,0.00
2013-12-2,60.6,50.3,40.3,51.6,46.1,38.7,97,86,64,30.22,29.95,11,5,13,0.00
2013-12-3,52.9,46.5,40.4,48.9,34.2,27.3,94,64,37,29.95,29.83,10,5,14,0.00
2013-12-4,48.7,37.4,28.0,30.4,26.5,21.7,88,68,36,30.09,29.95,5,2,6,0.00
2013-12-5,46.6,34.4,24.4,30.0,22.4,14.5,89,66,29,30.16,30.08,5,2,6,0.00
2013-12-6,46.5,36.5,25.1,44.9,32.8,23.6,96,87,59,30.19,29.91,14,3,14,0.92
2013-12-7,45.2,38.4,28.5,41.2,28.3,24.2,91,68,44,30.26,29.92,9,5,14,0.00
2013-12-8,42.0,31.5,24.6,28.4,24.0,22.0,93,76,48,30.32,30.24,5,2,6,0.00
2013-12-9,44.8,31.8,23.3,24.9,22.1,19.7,89,70,38,30.43,30.32,5,3,5,0.00
2013-12-10,47.3,37.2,31.8,29.3,26.6,23.6,81,67,42,30.42,30.22,5,2,7,0.00
2013-12-11,50.4,40.2,29.8,33.1,29.9,25.8,86,68,48,30.26,30.19,6,2,11,0.00
2013-12-12,54.1,43.6,37.5,41.7,32.9,29.4,94,67,41,30.27,30.17,6,2,7,0.00
2013-12-13,57.2,42.6,31.5,41.2,36.5,31.0,98,81,54,30.33,30.23,4,2,5,0.00
2013-12-14,54.5,42.8,34.2,38.8,35.0,32.1,93,76,52,30.41,30.31,5,2,8,0.00
2013-12-15,57.3,45.3,36.7,38.0,35.8,33.2,87,70,48,30.37,30.25,5,2,6,0.00
2013-12-16,58.6,50.2,42.4,38.2,36.5,35.2,77,60,45,30.25,30.13,7,2,9,0.00
2013-12-17,58.6,49.7,42.4,40.8,38.2,35.7,78,65,49,30.18,30.03,6,3,7,0.00
2013-12-18,58.0,47.5,39.0,45.0,40.1,35.2,88,76,52,30.03,29.76,9,4,16,0.00
2013-12-19,59.6,47.6,40.7,39.7,31.3,16.0,82,56,29,29.93,29.73,9,4,11,0.00
2013-12-20,61.3,46.4,33.7,37.9,26.0,16.5,75,48,20,30.01,29.93,7,4,10,0.00
2013-12-21,59.0,49.4,42.8,48.6,44.2,37.7,96,83,67,30.08,29.96,8,4,8,0.00
2013-12-22,57.1,46.9,39.7,41.4,38.1,36.1,96,74,47,30.28,30.08,4,2,7,0.00
2013-12-23,59.7,46.7,38.0,40.0,37.4,34.8,88,72,47,30.40,30.28,5,2,7,0.00
2013-12-24,65.5,48.8,39.6,42.4,39.5,36.3,88,73,43,30.34,30.20,5,2,5,0.00
2013-12-25,57.8,47.2,38.4,41.6,38.2,35.7,93,72,51,30.30,30.21,6,2,8,0.00
2013-12-26,58.4,50.3,42.2,40.4,37.4,34.2,81,62,46,30.26,30.17,6,2,8,0.00
2013-12-27,57.5,47.7,38.4,38.0,35.8,32.8,80,64,43,30.24,30.12,5,1,6,0.00
2013-12-28,66.0,46.6,32.9,38.5,32.4,26.3,90,62,27,30.15,30.02,5,2,6,0.00
2013-12-29,58.3,48.5,41.4,33.1,28.2,21.7,70,46,34,30.18,30.08,5,2,6,0.00
2013-12-30,57.9,47.1,39.2,37.7,35.2,32.6,80,64,46,30.26,30.17,6,2,6,0.00
2013-12-31,59.4,44.2,35.8,39.3,35.5,32.5,90,74,38,30.27,30.15,6,2,8,0.00
2014-1-1,60.4,45.4,34.8,39.5,35.0,30.6,92,70,34,30.21,30.13,5,2,5,0.00
2014-1-2,62.2,48.3,38.8,37.6,35.0,32.2,77,61,38,30.19,30.05,5,2,7,0.00